Location: Al Mulaqqa?ah
(24.1833°N, 32.8833°E)
Time: 21:40:35
(UTC+00:00)

Skynet4D Del rocket - Pass Details

Date: 26 September 2021
Orbit: 763 x 1291 km, 26.9° (Epoch: 22 October)

Event Time Altitude Azimuth Distance (km) Brightness Sun altitude
Rises 16:50:55 0° 281° (WNW) 3,213 8.5 -16.9°
Reaches altitude 10° 16:53:21 10° 278° (W) 2,301 7.3 -17.4°
Maximum altitude 16:58:40 62° 198° (SSW) 900 3.8 -18.6°
Enters shadow 17:01:28 30° 129° (SE) 1,456 4.5 -19.2°
